East Midlands, United Kingdom

8:10 AM GMT on February 20, 2018 (GMT +0000)
East Midlands

Weather History for EGNX - November, 2013

Change the Weather History Date:

Monday, November 11, 2013

  Actual Average Record
Temperature  
Mean Temperature 48 °F -  
Max Temperature 55 °F 46 °F 59 °F (2015)
Min Temperature 41 °F 37 °F 28 °F (1996)
Degree Days  
Heating Degree Days 17    
Moisture  
Dew Point 48 °F    
Average Humidity 92    
Maximum Humidity 100    
Minimum Humidity 76    
Precipitation  
Precipitation 0.00 in - - ()
Sea Level Pressure  
Sea Level Pressure 30.09 in    
Wind  
Wind Speed 12 mph ()    
Max Wind Speed 18 mph    
Max Gust Speed -    
Visibility 4.8 miles    
Events Rain    
Averages and records for this station are not official NWS values.
T = Trace of Precipitation, MM = Missing Value Source: Averaged Metar Reports

Daily Weather History Graph

Daily Weather History Graph

Search for Another Location

Airport or City:

Trip Planner

Search our weather history database for the weather conditions in past years. The results will help you decide how hot, cold, wet, or windy it might be!

Date:

Astronomy

Nov. 11, 2013 Rise Set
Actual Time 7:21 AM GMT 4:16 PM GMT
Civil Twilight 6:43 AM GMT 4:54 PM GMT
Nautical Twilight 6:01 AM GMT 5:36 PM GMT
Astronomical Twilight 5:21 AM GMT 6:16 PM GMT
Moon 1:34 PM GMT (11/11) No Moon Set
Length of Visible Light 10h 11m
Length of Day
8h 55m
Waxing Gibbous, 64% of the Moon is Illuminated
Nov 11
Waxing Gibbous
Nov 17
Full
Nov 25
Last Quarter
Dec 3
New
Dec 9
First Quarter

Hourly Weather History & Observations

Time (GMT) Temp. Windchill Dew Point Humidity Pressure Visibility Wind Dir Wind Speed Gust Speed Precip Events Conditions
12:20 AM 41.0 °F 34.3 °F 35.6 °F 81% 30.18 in - South 11.5 mph - N/A   Clear
12:50 AM 42.8 °F 37.0 °F 35.6 °F 76% 30.18 in - South 10.4 mph - N/A   Clear
1:20 AM 42.8 °F 36.2 °F 35.6 °F 76% 30.15 in - South 12.7 mph - N/A   Clear
1:50 AM 42.8 °F 35.8 °F 35.6 °F 76% 30.15 in - South 13.8 mph - N/A   Clear
2:20 AM 42.8 °F 36.2 °F 35.6 °F 76% 30.15 in - South 12.7 mph - N/A   Clear
2:50 AM 44.6 °F 38.1 °F 37.4 °F 76% 30.12 in - South 13.8 mph - N/A   Clear
3:20 AM 44.6 °F 38.8 °F 37.4 °F 76% 30.12 in - South 11.5 mph - N/A   Clear
3:50 AM 44.6 °F 37.8 °F 37.4 °F 76% 30.09 in 6.2 mi South 15.0 mph - N/A   Partly Cloudy
4:20 AM 44.6 °F 37.2 °F 39.2 °F 81% 30.09 in 6.2 mi South 17.3 mph - N/A Rain Light Rain
4:50 AM 44.6 °F 37.2 °F 41.0 °F 87% 30.09 in - South 17.3 mph - N/A   Clear
5:20 AM 44.6 °F 36.9 °F 41.0 °F 87% 30.06 in 6.2 mi South 18.4 mph - N/A Rain Light Rain
5:50 AM 44.6 °F 36.9 °F 42.8 °F 93% 30.06 in 6.2 mi South 18.4 mph - N/A Rain Light Rain
6:20 AM 46.4 °F 39.2 °F 42.8 °F 87% 30.06 in 6.2 mi South 18.4 mph - N/A Rain Light Rain
6:50 AM 46.4 °F 39.5 °F 42.8 °F 87% 30.06 in 5.0 mi South 17.3 mph - N/A Rain Light Rain
7:20 AM 46.4 °F 39.5 °F 44.6 °F 93% 30.06 in 2.8 mi South 17.3 mph - N/A Rain Light Rain
7:50 AM 46.4 °F 39.2 °F 44.6 °F 93% 30.06 in 2.8 mi South 18.4 mph - N/A Rain Light Rain
8:20 AM 46.4 °F 39.2 °F 46.4 °F 100% 30.06 in 3.1 mi South 18.4 mph - N/A Rain Light Rain
8:50 AM 48.2 °F - 46.4 °F 93% 30.06 in 3.1 mi South 17.3 mph - N/A Rain Light Rain
9:20 AM 48.2 °F - 46.4 °F 93% 30.06 in 3.1 mi SSW 17.3 mph - N/A Rain Light Rain
9:50 AM 50.0 °F - 48.2 °F 94% 30.06 in 3.1 mi SSW 17.3 mph - N/A Rain Light Rain
10:20 AM 50.0 °F - 48.2 °F 94% 30.06 in 3.1 mi SSW 17.3 mph - N/A Rain Light Rain
10:50 AM 50.0 °F - 48.2 °F 94% 30.06 in 6.2 mi SSW 17.3 mph - N/A Rain Light Rain
11:20 AM 50.0 °F - 50.0 °F 100% 30.06 in 6.2 mi SSW 13.8 mph - N/A Rain Light Rain
11:50 AM 51.8 °F - 50.0 °F 94% 30.06 in 3.7 mi SSW 13.8 mph - N/A Rain Light Rain
12:20 PM 51.8 °F - 51.8 °F 100% 30.06 in 5.0 mi SSW 13.8 mph - N/A Rain Light Rain
12:50 PM 53.6 °F - 51.8 °F 94% 30.04 in 5.0 mi SSW 15.0 mph - N/A Rain Light Rain
1:20 PM 53.6 °F - 51.8 °F 94% 30.04 in 6.2 mi SW 11.5 mph - N/A   Mostly Cloudy
1:50 PM 53.6 °F - 53.6 °F 100% 30.04 in 6.2 mi SSW 13.8 mph - N/A   Mostly Cloudy
2:20 PM 55.4 °F - 53.6 °F 94% 30.06 in 6.2 mi SW 10.4 mph - N/A   Mostly Cloudy
2:50 PM 55.4 °F - 53.6 °F 94% 30.06 in 6.2 mi WSW 10.4 mph - N/A   Mostly Cloudy
3:20 PM 55.4 °F - 53.6 °F 94% 30.06 in 6.2 mi SW 11.5 mph - N/A   Mostly Cloudy
3:50 PM 55.4 °F - 53.6 °F 94% 30.06 in 6.2 mi SW 9.2 mph - N/A   Mostly Cloudy
4:20 PM 55.4 °F - 53.6 °F 94% 30.09 in 3.7 mi SW 9.2 mph - N/A   Mostly Cloudy
4:50 PM 55.4 °F - 53.6 °F 94% 30.09 in 3.7 mi SSW 8.1 mph - N/A   Mostly Cloudy
5:20 PM 55.4 °F - 53.6 °F 94% 30.09 in 6.2 mi SSW 8.1 mph - N/A   Mostly Cloudy
5:50 PM 55.4 °F - 55.4 °F 100% 30.09 in 6.2 mi SW 8.1 mph - N/A   Mostly Cloudy
6:20 PM 55.4 °F - 55.4 °F 100% 30.09 in 5.6 mi WSW 9.2 mph - N/A   Mostly Cloudy
6:50 PM 55.4 °F - 55.4 °F 100% 30.12 in 6.2 mi SW 8.1 mph - N/A   Mostly Cloudy
7:50 PM 55.4 °F - 55.4 °F 100% 30.12 in 2.5 mi West 6.9 mph - N/A   Light Drizzle
8:20 PM 55.4 °F - 53.6 °F 94% 30.12 in 2.2 mi WNW 5.8 mph - N/A   Light Drizzle
8:50 PM 53.6 °F - 53.6 °F 100% 30.12 in 6.2 mi West 8.1 mph - N/A   Light Drizzle
9:20 PM 53.6 °F - 53.6 °F 100% 30.12 in 6.2 mi West 6.9 mph - N/A   Light Drizzle
9:50 PM 53.6 °F - 53.6 °F 100% 30.12 in 3.7 mi West 6.9 mph - N/A   Drizzle
10:20 PM 53.6 °F - 53.6 °F 100% 30.12 in 3.7 mi WSW 5.8 mph - N/A   Drizzle
10:50 PM 53.6 °F - 53.6 °F 100% 30.12 in 3.1 mi West 8.1 mph - N/A   Drizzle
11:20 PM 51.8 °F - 51.8 °F 100% 30.15 in 3.1 mi WNW 9.2 mph - N/A   Drizzle
11:50 PM 51.8 °F - 51.8 °F 100% 30.15 in 3.7 mi WNW 8.1 mph - N/A   Mostly Cloudy